Weather History for Ben-Gurion International Airport, Israel

Change the Weather History Date:

Saturday, October 12, 2013

  Actual Average Record
Temperature  
Mean Temperature 72 °F -  
Max Temperature 82 °F 78 °F - ()
Min Temperature 62 °F 61 °F - ()
Cooling Degree Days 7    
Growing Degree Days 22 (Base 50)    
Moisture  
Dew Point 58 °F    
Average Humidity 62    
Maximum Humidity 78    
Minimum Humidity 32    
Precipitation  
Precipitation 0.00 in - - ()
Sea Level Pressure  
Sea Level Pressure 30.01 in    
Wind  
Wind Speed 4 mph ()    
Max Wind Speed 12 mph    
Max Gust Speed -    
Visibility 6.1 miles    
Events      
T = Trace of Precipitation, MM = Missing Value Source: Averaged Metar Reports

Daily Weather History Graph

Daily Weather History Graph

Search for Another Location

Airport:

Trip Planner

Search our weather history database for the weather conditions in past years. The results will help you decide how hot, cold, wet, or windy it might be!

Date:

Astronomy

Oct. 12, 2013 Rise Set
Actual Time 6:41 AM IDT 6:11 PM IDT
Civil Twilight 6:17 AM IDT 6:36 PM IDT
Nautical Twilight 5:48 AM IDT 7:04 PM IDT
Astronomical Twilight 5:20 AM IDT 7:32 PM IDT
Moon 1:44 PM IDT (10/12) No Moon Set
Length of Visible Light 12h 19m
Length of Day
11h 29m
First Quarter, 55% of the Moon is Illuminated
Oct 12
First Quarter
Oct 19
Full
Oct 27
Last Quarter
Nov 3
New
Nov 10
First Quarter

Hourly Weather History & Observations

Time (IDT) Temp. Heat Index Dew Point Humidity Pressure Visibility Wind Dir Wind Speed Gust Speed Precip Events Conditions
12:20 AM 69.8 °F - 60.8 °F 73% 30.06 in - SE 4.6 mph - N/A   Clear
12:50 AM 68.0 °F - 59.0 °F 73% 30.06 in - Variable 3.5 mph - N/A   Clear
1:20 AM 66.2 °F - 59.0 °F 78% 30.06 in - Variable 1.2 mph - N/A   Clear
1:50 AM 68.0 °F - 59.0 °F 73% 30.06 in - Variable 3.5 mph - N/A   Clear
2:20 AM 68.0 °F - 59.0 °F 73% 30.04 in - Variable 2.3 mph - N/A   Clear
2:50 AM 66.2 °F - 59.0 °F 78% 30.04 in - Variable 3.5 mph - N/A   Clear
3:00 AM 66 °F - 58 °F 69% 30.05 in 6 mi 2.3 mph - -  
3:20 AM 66.2 °F - 59.0 °F 78% 30.04 in - Variable 3.5 mph - N/A   Clear
3:50 AM 64.4 °F - 57.2 °F 77% 30.04 in - Variable 2.3 mph - N/A   Clear
4:20 AM 66.2 °F - 59.0 °F 78% 30.04 in - Variable 3.5 mph - N/A   Clear
4:50 AM 66.2 °F - 57.2 °F 73% 30.04 in - Variable 3.5 mph - N/A   Clear
5:20 AM 66.2 °F - 57.2 °F 73% 30.04 in - SE 4.6 mph - N/A   Clear
5:50 AM 66.2 °F - 57.2 °F 73% 30.04 in - Variable 2.3 mph - N/A   Clear
6:20 AM 64.4 °F - 57.2 °F 77% 30.04 in - Variable 1.2 mph - N/A   Clear
6:50 AM 66.2 °F - 57.2 °F 73% 30.04 in - Variable 2.3 mph - N/A   Clear
7:20 AM 64.4 °F - 57.2 °F 77% 30.04 in - SE 4.6 mph - N/A   Clear
7:50 AM 66.2 °F - 55.4 °F 68% 30.04 in - Variable 3.5 mph - N/A   Clear
8:20 AM 69.8 °F - 57.2 °F 64% 30.06 in - Variable 1.2 mph - N/A   Clear
8:50 AM 69.8 °F - 57.2 °F 64% 30.06 in - Variable 3.5 mph - N/A   Clear
9:00 AM 70 °F - 57 °F 54% 30.07 in 6 mi 3.5 mph - -  
9:20 AM 75.2 °F - 59.0 °F 57% 30.06 in - Variable 1.2 mph - N/A   Clear
9:50 AM 77.0 °F - 59.0 °F 54% 30.06 in - Variable 1.2 mph - N/A   Clear
10:20 AM 77.0 °F - 59.0 °F 54% 30.06 in 6.2 mi Variable 2.3 mph - N/A   Partly Cloudy
10:50 AM 77.0 °F - 59.0 °F 54% 30.06 in 6.2 mi Variable 3.5 mph - N/A   Partly Cloudy
11:20 AM 78.8 °F - 57.2 °F 47% 30.04 in 6.2 mi Variable 2.3 mph - N/A   Partly Cloudy
11:50 AM 78.8 °F - 59.0 °F 51% 30.04 in 6.2 mi West 5.8 mph - N/A   Partly Cloudy
12:20 PM 80.6 °F 81.1 °F 59.0 °F 48% 30.04 in 6.2 mi WNW 5.8 mph - N/A   Partly Cloudy
12:50 PM 80.6 °F 81.1 °F 59.0 °F 48% 30.01 in 6.2 mi WNW 8.1 mph - N/A   Partly Cloudy
1:20 PM 78.8 °F - 59.0 °F 51% 30.01 in 6.2 mi WNW 10.4 mph - N/A   Partly Cloudy
1:50 PM 78.8 °F - 59.0 °F 51% 30.01 in - WNW 9.2 mph - N/A   Clear
2:20 PM 78.8 °F - 57.2 °F 47% 29.98 in - NW 9.2 mph - N/A   Clear
2:50 PM 80.6 °F 80.3 °F 53.6 °F 39% 29.98 in - NW 8.1 mph - N/A   Clear
3:00 PM 81 °F - 56 °F 32% 29.97 in 6 mi NNW 8.1 mph - -  
3:20 PM 80.6 °F 80.5 °F 55.4 °F 42% 29.95 in - NW 9.2 mph - N/A   Clear
3:50 PM 80.6 °F 80.5 °F 55.4 °F 42% 29.95 in - WNW 9.2 mph - N/A   Clear
4:20 PM 78.8 °F - 55.4 °F 44% 29.95 in - WNW 10.4 mph - N/A   Clear
4:50 PM 78.8 °F - 57.2 °F 47% 29.95 in - NW 11.5 mph - N/A   Clear
5:20 PM 77.0 °F - 59.0 °F 54% 29.98 in - NW 11.5 mph - N/A   Clear
5:50 PM 75.2 °F - 59.0 °F 57% 29.98 in - NW 9.2 mph - N/A   Clear
6:20 PM 75.2 °F - 60.8 °F 61% 29.98 in - NNW 8.1 mph - N/A   Clear
6:50 PM 75.2 °F - 60.8 °F 61% 29.98 in - North 4.6 mph - N/A   Clear
7:20 PM 73.4 °F - 60.8 °F 65% 29.98 in - Variable 2.3 mph - N/A   Clear
7:50 PM 73.4 °F - 60.8 °F 65% 29.98 in - Variable 2.3 mph - N/A   Clear
8:20 PM 73.4 °F - 60.8 °F 65% 29.98 in - Variable 2.3 mph - N/A   Clear
8:50 PM 73.4 °F - 60.8 °F 65% 29.98 in - Variable 2.3 mph - N/A   Clear
9:00 PM 73 °F - 61 °F 57% 29.99 in 6 mi 2.3 mph - -  
9:20 PM 71.6 °F - 59.0 °F 64% 29.98 in - Calm Calm - N/A   Clear
9:50 PM 71.6 °F - 59.0 °F 64% 29.98 in - SSE 4.6 mph - N/A   Clear
10:20 PM 69.8 °F - 59.0 °F 68% 29.98 in - Variable 3.5 mph - N/A   Clear
10:50 PM 69.8 °F - 57.2 °F 64% 29.98 in - Variable 2.3 mph - N/A   Clear
11:20 PM 68.0 °F - 57.2 °F 68% 29.98 in - SE 6.9 mph - N/A   Clear
11:50 PM 68.0 °F - 59.0 °F 73% 29.95 in - SSE 4.6 mph - N/A   Clear